Powrót do katalogu

METEOR 1-10 DEB

AktywnyPO
NORAD 8827·DEBRIS·🇷🇺 Russia

Wystrzelony Dec 29, 1971 z Plesetsk Cosmodrome

Loading…

Następne Przeloty (najbliższe 24 godziny)

TLE

ŚwieżeSource: Space-Track

Epoka: Sep 14, 2026, 08:53 UTC

1 08827U 71120D   26257.37056156  .00000110  00000-0  48390-4 0  9991
2 08827  81.2642 238.1286 0012926 341.3177  18.7521 14.17083887820760

Śledź METEOR 1-10 DEB w czasie rzeczywistym z AllMySat

Download on the App Store